Location: Newark
(31.5350°N, 35.0986°E)
Time: 22:46:00
(UTC+00:00)

Transit 4A - Pass Details

Date: 24 October 2019
Orbit: 869 x 976 km, 66.8° (Epoch: 22 November)

Event Time Altitude Azimuth Distance (km) Brightness Sun altitude
Rises 10:12:37 0° 342° (NNW) 3,524 10.6 45.2°
Reaches altitude 10° 10:15:18 10° 349° (N) 2,565 9.9 45.0°
Maximum altitude 10:20:54 43° 60° (ENE) 1,220 8.7 44.6°
Drops below altitude 10° 10:26:23 10° 131° (SE) 2,510 10.5 44.2°
Sets 10:28:58 0° 138° (SE) 3,441 11.1 44.0°
